This demonstration page uses our WeatherBlox Daily Observations layout. Learn more.

Left ArrowRight Arrow

41.55636, -103.73856

Hourly Observations for December 19, 2017

Temp ( °F °C ) Dew Point ( °F °C ) Humidity (%) Winds ( mph kmh ) Pressure ( in mb ) Visibility ( mi km ) Precip ( " mm )
12:53 am 00:53 Clear 37 2.8 25 -3.9 62 62 WSW 3 6 29.98 1015 10 16 N/A
1:53 am 01:53 Clear 35 1.7 24 -4.4 64 64 NW 5 7 30.00 1016 10 16 N/A
2:53 am 02:53 Clear 33 0.6 24 -4.4 70 70 WNW 6 9 30.02 1017 10 16 N/A
3:53 am 03:53 Clear 30 -1.1 23 -5 75 75 NNW 9 15 30.04 1017 10 16 N/A
4:53 am 04:53 Clear 28 -2.2 22 -5.6 78 78 NE 9 15 30.08 1019 10 16 N/A
5:53 am 05:53 Clear 29 -1.7 23 -5 78 78 N N/A 30.10 1019 10 16 N/A
6:53 am 06:53 Clear 26 -3.3 23 -5 88 88 ESE 5 7 30.13 1020 10 16 N/A
7:53 am 07:53 Sunny 26 -3.3 23 -5 88 88 N N/A 30.16 1021 10 16 N/A
8:53 am 08:53 Sunny 33 0.6 27 -2.8 78 78 ESE 8 13 30.15 1021 10 16 N/A
9:53 am 09:53 Sunny 36 2.2 28 -2.2 73 73 SE 10 17 30.15 1021 10 16 N/A
10:53 am 10:53 Sunny 41 5 27 -2.8 57 57 SE 16 26 30.11 1020 10 16 N/A
11:53 am 11:53 Sunny 44 6.7 28 -2.2 53 53 SE 12 19 30.07 1018 10 16 N/A
12:53 pm 12:53 Sunny 47 8.3 28 -2.2 48 48 SE 12 19 30.02 1017 10 16 N/A
1:53 pm 13:53 Sunny 50 10 27 -2.8 41 41 SE 14 22 29.98 1015 10 16 N/A
2:53 pm 14:53 Sunny 50 10 27 -2.8 41 41 SSE 16 26 29.96 1015 10 16 N/A
3:53 pm 15:53 Sunny 47 8.3 27 -2.8 46 46 SE 12 19 29.96 1015 10 16 N/A
4:53 pm 16:53 Clear 40 4.4 26 -3.3 58 58 ESE 13 20 29.99 1016 10 16 N/A
5:53 pm 17:53 Clear 36 2.2 26 -3.3 67 67 ESE 12 19 30.00 1016 10 16 N/A
6:53 pm 18:53 Clear 37 2.8 26 -3.3 65 65 SE 10 17 30.01 1016 10 16 N/A
7:53 pm 19:53 Clear 31 -0.6 24 -4.4 76 76 ESE 10 17 30.02 1017 10 16 N/A
8:53 pm 20:53 Clear 30 -1.1 24 -4.4 79 79 ESE 13 20 29.98 1015 10 16 N/A
9:53 pm 21:53 Clear 30 -1.1 24 -4.4 79 79 ESE 13 20 29.95 1014 10 16 N/A
10:53 pm 22:53 Clear 29 -1.7 24 -4.4 82 82 E 12 19 29.93 1013 10 16 N/A
11:53 pm 23:53 Clear 29 -1.7 24 -4.4 82 82 E 10 17 29.89 1012 10 16 N/A

Powered by AerisWeather